Location: Recife
(8.0585°S, 34.8848°W)
Time: 11:13:11
(UTC-03:00)

Courier 1B - Pass Details

Date: 21 April 2026
Orbit: 962 x 1209 km, 28.3° (Epoch: 7 May)

Event Time Altitude Azimuth Distance (km) Brightness Sun altitude
Rises 07:36:08 0° 237° (WSW) 4,064 10.2 31.3°
Reaches altitude 10° 07:40:25 10° 215° (SW) 3,130 9.8 32.3°
Maximum altitude 07:44:49 16° 181° (S) 2,733 9.8 33.3°
Drops below altitude 10° 07:49:15 10° 146° (SE) 3,149 10.4 34.3°
Sets 07:53:34 0° 125° (SE) 4,102 11.2 35.3°
